Regional Weather Roundup
Issued by NWS

Home | Current Version | Previous Version | Graphics & Text | Print | Product List | Glossary Off
Versions: 1 2 3 4 5 6 7 8 9 10 11 12 13 14 15 16 17 18 19 20 21 22 23 24 25 26 27 28 29 30 31 32 33 34 35 36 37 38 39 40 41 42 43 44 45 46 47 48 49 50

000
ASUS43 KTOP 211908
RWRKS

WEATHER ROUNDUP FOR KANSAS
NATIONAL WEATHER SERVICE GOODLAND KS
100 PM CST SUN DEC 21 2014

NOTE:  "FAIR" INDICATES FEW OR NO CLOUDS BELOW 12,000 FEET WITH NO
SIGNIFICANT WEATHER AND/OR OBSTRUCTIONS TO VISIBILITY.

KSZ001>006-013>018-027>032-041>047-212000-
NORTHWEST KANSAS

CITY           SKY/WX    TMP DP  RH WIND       PRES   REMARKS
GOODLAND       MOSUNNY   49  30  48 S12       29.62F
HAYS           CLOUDY    43  34  70 S20G25    29.72F
HILL CITY      CLOUDY    44  36  73 SW14G21   29.69F
RUSSELL        CLOUDY    42  40  92 S17       29.72F
$$

KSZ061>065-074>080-084>089-212000-
SOUTHWEST KANSAS

CITY           SKY/WX    TMP DP  RH WIND       PRES   REMARKS
DODGE CITY     CLOUDY    43  37  79 S17G25    29.72F
ELKHART          N/A    N/A N/A N/A MISG        N/A
GARDEN CITY    SUNNY     45  34  65 S18G26    29.68F
GREAT BEND     CLOUDY    41  37  87 S20       29.75F
LIBERAL        SUNNY     46  39  76 S10       29.71F
PRATT          FOG       41  39  93 S14       29.77F VSB 3/4
$$

KSZ066>073-081>083-090>101-212000-
SOUTHEAST KANSAS

CITY           SKY/WX    TMP DP  RH WIND       PRES   REMARKS
CHANUTE        CLOUDY    45  42  89 S12       29.91F FOG
COFFEYVILLE    CLOUDY    47  42  83 S17       29.92F
HUTCHINSON     CLOUDY    43  40  89 S20       29.80F FOG
MEDICINE LODGE   N/A     43  42  97 S15       29.78F
NEWTON         CLOUDY    41  36  81 S17       29.83F
PARSONS        CLOUDY    46  43  89 S8        29.92F
WICHITA INTL   DRIZZLE   44  41  89 S15       29.82F FOG
WICHITA JABRA  CLOUDY    42  41  96 S14       29.82F FOG
WINFIELD       CLOUDY    45  42  89 S16       29.86F
$$

KSZ007>012-019>026-033>040-048>060-102>105-212000-
NORTHEAST KANSAS

CITY           SKY/WX    TMP DP  RH WIND       PRES   REMARKS
CONCORDIA      CLOUDY    41  40  96 S13       29.77F FOG
EMPORIA        CLOUDY    42  40  92 S15       29.86F
LAWRENCE       CLOUDY    43  38  82 S13G21    29.89F
MANHATTAN      CLOUDY    44  39  82 S13       29.82F
MARYSVILLE     CLOUDY    41  37  87 S13       29.80F
OLATHE IND     CLOUDY    43  40  89 S16       29.90F
OLATHE EXE     CLOUDY    43  40  89 S16       29.89F
SALINA         CLOUDY    43  39  86 S18G24    29.80F
TOPEKA BILLARD CLOUDY   N/A N/A N/A S10       29.88F
TOPEKA FORBES  CLOUDY    44  39  82 S15       29.86F
$$


USA.gov is the U.S. government's official web portal to all federal, state and local government web resources and services.